Location: Croisilles
(50.1998°N, 2.8793°E)
Time: 21:06:54
(UTC+00:00)

ERS-2 - Pass Details

Date: 21 January 2021
Orbit: 492 x 497 km, 98.6° (Epoch: 01 March)

Event Time Altitude Azimuth Distance (km) Brightness Sun altitude
Exits shadow 18:55:02 33° 339° (NNW) 853 3.4 -23.7°
Maximum altitude 18:56:11 45° 291° (WNW) 680 3.1 -23.9°
Drops below altitude 10° 18:59:39 10° 218° (SW) 1,686 5.3 -24.5°
Sets 19:01:45 0° 212° (SSW) 2,563 6.2 -24.8°
